Terug naar catalogus

COSMOS 2251 DEB

ActiefLEO
NORAD 35724·DEBRIS·🇷🇺 Russia

Gelanceerd Jun 16, 1993 vanaf Plesetsk Cosmodrome

Loading…

Volgende Passages (komende 24 uur)

TLE

VersSource: Space-Track

Epoch: Sep 14, 2026, 01:57 UTC

1 35724U 93036AQV 26257.08169581  .00000508  00000-0  11263-3 0  9991
2 35724  74.0318 138.3808 0061020 222.9774 136.6617 14.58737431915434

Volg COSMOS 2251 DEB in realtime met AllMySat

Download on the App Store